map of ROV home
Great Circle Mapper logo
ROV - Airport
Location
City:  Rostov Na Donu, Russian Federation (Russia)
ICAO / IATA:URRR / ROV

Details
Type:Airport (Aerodrome, Airfield)
Use:Public/Civil
Latitude:4715'30"N (47.258208)
Longitude:3949'05"E (39.818089)
Datum:WGS 1984
Elevation:280 ft (85 m)
Variation:7.84E (WMM2015 magnetic declination)
0.10 annual change
Runways:3
Longest:8202 × 148 ft (2500 × 45 m), paved

Time
Time Zone:UTC+3 (DST+4)

Weather
METAR:URRR 020100Z 19006G12MPS P8000 -SHRA BKN028CB BKN100 09/04 Q1000 22290044 TEMPO 21013G18MPS
TAF:URRR 012300Z 0200/0224 18008G13MPS 2100 -SHRA BR BKN007 BKN020CB 530005
TEMPO 0200/0212 21013G18MPS
TEMPO 0212/0224 13005G10MPS

Related Locations
Nearby:
Farthest:NTAV: 10767 mi / 17328 km
Raivavae, Tubuai Islands, Austral Islands, PF

Find:

   beyond  
but within

Other Information
Maps:
NOTAMs:
Links:
Sources:

  
flag of Russian Federation (Russia)   

Sectional Chart

Flight Planning
at skyvector.com

Satellite Image

Google Maps Satellite View

 

Copyright © 2004-2015 Karl L. Swartz. All rights reserved.
The Great Circle Mapper name and logo are trademarks of the Great Circle Mapper.
All other trademarks mentioned herein belong to their respective owners.
Please see credits for attibutions and further copyright information.

  Follow gcmap on Facebook Follow gcmap on Twitter

hCard Microformat

Geo Microformat